Location: Newark
(16.3678°N, 77.8722°E)
Time: 06:32:56
(UTC+00:00)

S-56A Canister/Altair - Pass Details

Date: 18 December 2019
Orbit: 634 x 2498 km, 38.9° (Epoch: 19 January)

Event Time Altitude Azimuth Distance (km) Brightness Sun altitude
Rises 22:57:58 0° 206° (SSW) 3,637 - -30.6°
Exits shadow 22:58:09 - 205° (SSW) 3,580 10.9 -30.6°
Reaches altitude 10° 23:00:26 10° 197° (SSW) 2,894 10.5 -30.0°
Maximum altitude 23:07:00 38° 131° (SE) 2,009 10.0 -28.5°
Drops below altitude 10° 23:16:30 10° 68° (ENE) 4,211 11.9 -26.4°
Sets 23:20:51 0° 62° (ENE) 5,499 12.5 -25.4°
